User: anonymous   Login
Location: Omaha
(41.2590°N, 95.9380°W)
Time: 15:37:32
(UTC-05:00)
Language:

Tiangong 2 - Orbit

View from above orbital plane
View from above orbital plane
View from above satellite
View from above satellite

Ground track
Ground track

The orbit data is extracted from the following two-line orbital elements,

1 41765U 16057A   18199.38664723  .00002876  00000-0  40566-4 0  9997
2 41765  42.7838 154.8182 0005705 127.2629  15.4581 15.59056599104892
Epoch (UTC): 18 July 2018 09:16:46
Eccentricity: 0.0005705
inclination: 42.7838°
perigee height: 386 km
apogee height: 394 km
right ascension of ascending node: 154.8182°
argument of perigee: 127.2629°
revolutions per day: 15.59056599
mean anomaly at epoch: 15.4581°
orbit number at epoch: 10489

The dashed part of the orbit path shows where the satellite is in the earth's shadow,  

DLR